Torna al catalogo

SATCOM 3 DEB

LostHEO
NORAD 49960·DEBRIS·🇺🇸 United States

Lanciato Dec 7, 1979 da Cape Canaveral Space Force Station

Loading…

Prossimi Passaggi (prossime 24 ore)

TLE

ObsoletoSource: Space-Track

Epoca: Dec 14, 2023, 02:31 UTC

1 49960U 79101AE  23348.10503287 -.00000043  00000-0  00000+0 0  9999
2 49960   8.6072 297.6836 5425695  50.0430 346.3214  1.86916210 59339

Traccia SATCOM 3 DEB in tempo reale con AllMySat

Download on the App Store